Weather History for Angel Fire, NM

Change the Weather History Date:

Thursday, March 13, 2014

  Actual Average (KSKX) Record (KSKX)
Temperature  
Mean Temperature 30 °F -  
Max Temperature 49 °F 51 °F 68 °F (2002)
Min Temperature 12 °F 20 °F 1 °F (1999)
Degree Days  
Heating Degree Days 34    
Moisture  
Dew Point 13 °F    
Average Humidity 53    
Maximum Humidity 84    
Minimum Humidity 24    
Precipitation  
Precipitation 0.00 in - - ()
Sea Level Pressure  
Sea Level Pressure 30.13 in    
Wind  
Wind Speed 4 mph (WSW)    
Max Wind Speed 20 mph    
Max Gust Speed 26 mph    
Visibility 10 miles    
Events      
Averages and records for this station are not official NWS values.
T = Trace of Precipitation, MM = Missing Value Source: NWS Daily Summary

Daily Weather History Graph

Daily Weather History Graph

Search for Another Location

Airport:

Trip Planner

Search our weather history database for the weather conditions in past years. The results will help you decide how hot, cold, wet, or windy it might be!

Date:

Astronomy

Mar. 13, 2014 Rise Set
Actual Time 7:14 AM MDT 7:06 PM MDT
Civil Twilight 6:49 AM MDT 7:32 PM MDT
Nautical Twilight 6:19 AM MDT 8:02 PM MDT
Astronomical Twilight 5:49 AM MDT 8:32 PM MDT
Moon 4:38 PM MDT (3/13) 5:19 AM MDT (3/13)
Length of Visible Light 12h 43m
Length of Day
11h 52m
Waxing Gibbous, 92% of the Moon is Illuminated
Mar 13
Waxing Gibbous
Mar 16
Full
Mar 23
Last Quarter
Mar 30
New
Apr 7
First Quarter

Hourly Weather History & Observations

Time (MDT) Temp. Windchill Dew Point Humidity Pressure Visibility Wind Dir Wind Speed Gust Speed Precip Events Conditions
12:15 AM 17.4 °F - 11.1 °F 76% 30.30 in 10.0 mi Calm Calm - N/A   Clear
12:35 AM 17.1 °F - 10.8 °F 76% 30.30 in 10.0 mi Calm Calm - N/A   Clear
12:55 AM 16.0 °F 10.4 °F 10.0 °F 77% 30.30 in 10.0 mi SE 3.5 mph - N/A   Clear
1:15 AM 15.6 °F - 10.2 °F 79% 30.28 in 10.0 mi Calm Calm - N/A   Clear
1:35 AM 14.9 °F - 10.0 °F 81% 30.28 in 10.0 mi Calm Calm - N/A   Clear
1:55 AM 14.2 °F - 9.1 °F 80% 30.28 in 10.0 mi Calm Calm - N/A   Clear
2:15 AM 13.1 °F - 8.4 °F 82% 30.27 in 10.0 mi Calm Calm - N/A   Clear
2:35 AM 12.6 °F - 8.1 °F 82% 30.27 in 10.0 mi Calm Calm - N/A   Clear
3:00 AM 13.5 °F - 8.6 °F 81% 30.26 in 10.0 mi Calm Calm - N/A   Clear
3:15 AM 12.4 °F - 8.1 °F 83% 30.25 in 10.0 mi Calm Calm - N/A   Clear
3:35 AM 12.7 °F - 8.4 °F 83% 30.24 in 10.0 mi Calm Calm - N/A   Clear
3:55 AM 13.5 °F - 9.3 °F 84% 30.23 in 10.0 mi Calm Calm - N/A   Clear
4:15 AM 13.3 °F 5.6 °F 9.1 °F 84% 30.23 in 10.0 mi SSE 4.6 mph - N/A   Clear
4:35 AM 13.6 °F - 9.3 °F 83% 30.23 in 10.0 mi Calm Calm - N/A   Clear
4:55 AM 13.8 °F - 9.3 °F 82% 30.22 in 10.0 mi Calm Calm - N/A   Clear
5:20 AM 13.1 °F 7.1 °F 8.6 °F 82% 30.22 in 10.0 mi SSE 3.5 mph - N/A   Clear
5:35 AM 14.4 °F 8.6 °F 9.3 °F 80% 30.22 in 10.0 mi SW 3.5 mph - N/A   Clear
5:55 AM 14.5 °F - 9.9 °F 82% 30.21 in 10.0 mi Calm Calm - N/A   Clear
6:15 AM 15.4 °F - 10.0 °F 79% 30.21 in 10.0 mi Calm Calm - N/A   Clear
6:35 AM 16.2 °F - 10.4 °F 78% 30.21 in 10.0 mi Calm Calm - N/A   Clear
6:55 AM 16.0 °F 10.4 °F 10.4 °F 79% 30.21 in 10.0 mi South 3.5 mph - N/A   Clear
7:15 AM 14.9 °F - 9.5 °F 79% 30.21 in 10.0 mi Calm Calm - N/A   Clear
7:35 AM 15.1 °F - 10.2 °F 81% 30.21 in 10.0 mi Calm Calm - N/A   Clear
7:55 AM 17.8 °F 12.5 °F 12.6 °F 80% 30.21 in 10.0 mi WSW 3.5 mph - N/A   Clear
8:15 AM 24.3 °F - 17.8 °F 76% 30.21 in 10.0 mi Calm Calm - N/A   Clear
8:35 AM 29.8 °F 23.9 °F 17.8 °F 61% 30.22 in 10.0 mi SSE 5.8 mph - N/A   Clear
8:55 AM 33.1 °F 27.7 °F 15.1 °F 48% 30.22 in 10.0 mi South 5.8 mph - N/A   Clear
9:15 AM 34.2 °F - 12.4 °F 41% 30.21 in 10.0 mi Calm Calm - N/A   Clear
9:35 AM 36.1 °F 33.5 °F 12.4 °F 38% 30.20 in 10.0 mi ESE 3.5 mph - N/A   Clear
9:55 AM 37.9 °F 32.7 °F 11.3 °F 33% 30.20 in 10.0 mi WSW 6.9 mph - N/A   Clear
10:15 AM 40.1 °F 36.1 °F 11.5 °F 31% 30.19 in 10.0 mi SSW 5.8 mph 17.3 mph N/A   Clear
10:30 AM 41.4 °F 35.7 °F 11.5 °F 30% 30.18 in 10.0 mi SSW 9.2 mph - N/A   Clear
10:55 AM 42.3 °F 35.1 °F 10.8 °F 28% 30.17 in 10.0 mi West 13.8 mph 18.4 mph N/A   Clear
11:20 AM 43.9 °F 39.3 °F 10.9 °F 26% 30.17 in 10.0 mi West 8.1 mph - N/A   Clear
11:35 AM 44.1 °F 39.5 °F 11.1 °F 26% 30.16 in 10.0 mi WSW 8.1 mph 17.3 mph N/A   Clear
11:55 AM 44.4 °F 39.0 °F 11.8 °F 27% 30.15 in 10.0 mi WSW 10.4 mph 21.9 mph N/A   Clear
12:15 PM 45.3 °F 39.3 °F 12.4 °F 26% 30.14 in 10.0 mi West 12.7 mph 19.6 mph N/A   Clear
12:35 PM 45.7 °F 39.5 °F 13.8 °F 28% 30.13 in 10.0 mi West 13.8 mph 21.9 mph N/A   Clear
12:55 PM 46.8 °F - 14.2 °F 27% 30.12 in 10.0 mi WSW 10.4 mph 21.9 mph N/A   Clear
1:15 PM 46.6 °F - 14.0 °F 27% 30.11 in 10.0 mi WSW 5.8 mph 17.3 mph N/A   Clear
1:35 PM 47.8 °F - 15.1 °F 27% 30.10 in 10.0 mi WSW 11.5 mph 19.6 mph N/A   Clear
1:55 PM 48.4 °F - 15.4 °F 27% 30.08 in 10.0 mi WSW 11.5 mph 21.9 mph N/A   Clear
2:15 PM 49.3 °F - 15.4 °F 26% 30.08 in 10.0 mi West 16.1 mph 23.0 mph N/A   Clear
2:35 PM 48.6 °F - 15.8 °F 27% 30.06 in 10.0 mi WNW 11.5 mph 24.2 mph N/A   Clear
2:55 PM 49.3 °F - 16.0 °F 27% 30.05 in 10.0 mi West 17.3 mph 25.3 mph N/A   Clear
3:15 PM 48.7 °F - 15.8 °F 27% 30.04 in 10.0 mi West 15.0 mph 23.0 mph N/A   Clear
3:35 PM 49.3 °F - 15.1 °F 26% 30.04 in 10.0 mi West 12.7 mph 21.9 mph N/A   Clear
3:55 PM 49.6 °F - 15.1 °F 25% 30.03 in 10.0 mi West 19.6 mph 26.5 mph N/A   Clear
4:15 PM 49.8 °F - 15.3 °F 25% 30.02 in 10.0 mi WNW 18.4 mph 24.2 mph N/A   Clear
4:35 PM 48.9 °F - 12.9 °F 24% 30.01 in 10.0 mi West 13.8 mph 20.7 mph N/A   Clear
4:55 PM 49.8 °F - 13.6 °F 24% 30.01 in 10.0 mi West 15.0 mph 20.7 mph N/A   Clear
5:15 PM 48.4 °F - 13.1 °F 24% 30.00 in 10.0 mi West 16.1 mph 26.5 mph N/A   Clear
5:35 PM 48.9 °F - 13.6 °F 24% 30.00 in 10.0 mi West 12.7 mph 20.7 mph N/A   Clear
5:55 PM 48.2 °F - 13.6 °F 25% 29.99 in 10.0 mi WSW 16.1 mph 21.9 mph N/A   Clear
6:15 PM 47.3 °F - 14.5 °F 27% 29.99 in 10.0 mi WSW 10.4 mph 16.1 mph N/A   Clear
6:35 PM 46.4 °F 41.9 °F 14.7 °F 28% 30.00 in 10.0 mi SW 9.2 mph - N/A   Clear
6:55 PM 44.8 °F 41.6 °F 14.2 °F 29% 30.00 in 10.0 mi SW 5.8 mph - N/A   Clear
7:15 PM 42.6 °F 37.8 °F 14.7 °F 32% 30.00 in 10.0 mi SW 8.1 mph - N/A   Clear
7:35 PM 41.7 °F 37.3 °F 14.5 °F 33% 30.01 in 10.0 mi SW 6.9 mph - N/A   Clear
7:55 PM 40.3 °F - 14.0 °F 34% 30.00 in 10.0 mi Calm Calm - N/A   Clear
8:15 PM 32.5 °F - 18.0 °F 55% 30.01 in 10.0 mi Calm Calm - N/A   Clear
8:35 PM 31.8 °F - 18.0 °F 57% 30.01 in 10.0 mi Calm Calm - N/A   Clear
8:55 PM 30.4 °F - 18.1 °F 60% 30.02 in 10.0 mi Calm Calm - N/A   Clear
9:15 PM 30.4 °F - 18.3 °F 61% 30.02 in 10.0 mi Calm Calm - N/A   Clear
9:35 PM 28.8 °F - 18.0 °F 64% 30.02 in 10.0 mi Calm Calm - N/A   Clear
9:55 PM 29.3 °F 25.6 °F 17.8 °F 62% 30.03 in 10.0 mi South 3.5 mph - N/A   Clear
10:15 PM 28.0 °F - 17.8 °F 65% 30.03 in 10.0 mi Calm Calm - N/A   Clear
10:35 PM 28.6 °F 23.5 °F 17.6 °F 64% 30.04 in 10.0 mi SSE 4.6 mph - N/A   Clear
10:55 PM 25.0 °F - 17.2 °F 72% 30.04 in 10.0 mi Calm Calm - N/A   Clear
11:15 PM 24.6 °F - 17.6 °F 75% 30.03 in 10.0 mi Calm Calm - N/A   Clear
11:35 PM 27.3 °F - 17.8 °F 67% 30.03 in 10.0 mi Calm Calm - N/A   Clear
11:55 PM 27.5 °F 21.1 °F 18.3 °F 68% 30.03 in 10.0 mi SSE 5.8 mph - N/A   Clear